Date String (YYYY-MM-DD hh:mm:ss) UTC,Instrument flags,Ambient pressure (hPa),Sample flow (lpm),Bypass flow (lpm),Sample temperature (°C),Ambient temperature (°C),ASC tube jacket temperature (°C),LED temperature (°C),Box temperature (°C),Sample RH (%),Span deviation,Mass concentration (μg/m³),Mass concentration (μg/m³),Mass concentration (μg/m³)
DateTimeUTC,F1_M11,P_M11,Q1_M11,Q2_M11,T1_M11,T2_M11,T3_M11,T4_M11,T5_M11,U1_M11,ZSPAN_M11,X2_M11,X0_M11,X1_M11
2021-12-03 23:00:00,,0828.0,4.99,0.00,30.6,29.9,00.0,39.5,32.4,12.4,0000.0,0005.90,0023.04,0004.08
2021-12-03 23:01:00,,0828.0,5.02,0.00,30.7,29.9,00.0,39.5,32.4,12.4,0000.0,0005.82,0022.51,0004.08
2021-12-03 23:02:00,,0828.1,5.00,0.00,30.7,29.9,00.0,39.5,32.4,12.4,0000.0,0005.81,0023.79,0004.08
2021-12-03 23:03:00,,0828.0,5.00,0.00,30.7,29.9,00.0,39.5,32.4,12.4,0000.0,0005.83,0022.68,0004.08
2021-12-03 23:04:00,,0828.0,5.01,0.00,30.7,29.9,00.0,39.6,32.4,12.4,0000.0,0005.85,0022.99,0004.08
2021-12-03 23:05:00,,0828.0,5.00,0.00,30.7,29.9,00.0,39.6,32.5,12.4,0000.0,0005.84,0024.36,0004.05
2021-12-03 23:06:00,,0828.0,5.00,0.00,30.7,29.9,00.0,39.6,32.5,12.4,0000.0,0005.88,0023.84,0004.04
2021-12-03 23:07:00,,0828.0,4.99,0.00,30.7,29.9,00.0,39.6,32.5,12.3,0000.0,0006.12,0026.82,0004.03
2021-12-03 23:08:00,,0828.0,5.00,0.00,30.7,29.9,00.0,39.6,32.5,12.3,0000.0,0006.43,0031.77,0004.01
2021-12-03 23:09:00,,0828.0,4.99,0.00,30.7,28.9,00.0,39.6,32.1,12.3,0000.0,0006.66,0033.21,0004.02
2021-12-03 23:10:00,,0828.1,5.01,0.00,30.5,26.4,00.0,39.5,31.5,12.4,0000.0,0006.84,0034.90,0004.01
2021-12-03 23:11:00,,0828.0,4.99,0.00,30.3,25.7,00.0,39.5,31.3,12.5,0000.0,0006.91,0036.01,0003.99
2021-12-03 23:12:00,,0828.0,5.01,0.00,30.2,26.0,00.0,39.4,31.3,12.5,0000.0,0006.96,0038.23,0003.95
2021-12-03 23:13:00,,0828.1,5.01,0.00,30.1,26.5,00.0,39.3,31.4,12.5,0000.0,0006.95,0038.79,0003.93
2021-12-03 23:14:00,,0828.1,5.01,0.00,30.0,27.0,00.0,39.2,31.5,12.5,0000.0,0006.93,0039.29,0003.87
2021-12-03 23:15:00,,0828.1,5.01,0.00,30.0,27.5,00.0,39.2,31.5,12.5,0000.0,0006.87,0038.98,0003.80
2021-12-03 23:16:00,,0828.2,5.00,0.00,30.0,27.8,00.0,39.2,31.6,12.5,0000.0,0006.88,0039.48,0003.74
2021-12-03 23:17:00,,0828.1,4.98,0.00,30.0,28.1,00.0,39.2,31.6,12.5,0000.0,0006.74,0038.78,0003.67
2021-12-03 23:18:00,,0828.1,5.01,0.00,30.0,28.3,00.0,39.1,31.7,12.5,0000.0,0006.46,0036.83,0003.58
2021-12-03 23:19:00,,0828.1,5.01,0.00,30.0,28.5,00.0,39.1,31.7,12.5,0000.0,0006.11,0034.31,0003.51
2021-12-03 23:20:00,,0828.1,5.00,0.00,30.1,28.7,00.0,39.1,31.8,12.4,0000.0,0005.79,0034.14,0003.44
2021-12-03 23:21:00,,0828.3,4.99,0.00,30.1,28.8,00.0,39.1,31.7,12.4,0000.0,0005.53,0032.51,0003.36
2021-12-03 23:22:00,,0828.1,4.99,0.00,30.1,28.9,00.0,39.1,31.8,12.4,0000.0,0005.44,0032.00,0003.29
2021-12-03 23:23:00,,0828.3,5.01,0.00,30.1,29.0,00.0,39.1,31.8,12.3,0000.0,0005.35,0031.00,0003.22
2021-12-03 23:24:00,,0828.2,5.00,0.00,30.1,29.1,00.0,39.1,31.9,12.3,0000.0,0005.23,0029.40,0003.12
2021-12-03 23:25:00,,0828.3,4.99,0.00,30.1,29.1,00.0,39.1,31.9,12.2,0000.0,0005.16,0028.84,0003.04
2021-12-03 23:26:00,,0828.2,4.99,0.00,30.2,29.1,00.0,39.1,31.9,12.2,0000.0,0005.09,0030.14,0002.94
2021-12-03 23:27:00,,0828.2,5.01,0.00,30.2,29.2,00.0,39.1,32.0,12.2,0000.0,0005.01,0029.49,0002.86
2021-12-03 23:28:00,,0828.2,5.02,0.00,30.2,29.2,00.0,39.1,32.0,12.1,0000.0,0004.95,0029.12,0002.78
2021-12-03 23:29:00,,0828.2,4.99,0.00,30.2,29.3,00.0,39.1,32.0,12.1,0000.0,0004.85,0028.07,0002.72
2021-12-03 23:30:00,,0828.2,4.99,0.00,30.2,29.3,00.0,39.1,32.0,12.1,0000.0,0004.82,0026.13,0002.65
2021-12-03 23:31:00,,0828.2,5.01,0.00,30.2,29.3,00.0,39.2,32.0,12.1,0000.0,0004.80,0024.66,0002.56
2021-12-03 23:32:00,,0828.3,4.98,0.00,30.2,29.3,00.0,39.2,32.0,12.1,0000.0,0004.79,0023.92,0002.48
2021-12-03 23:33:00,,0828.3,5.01,0.00,30.2,29.3,00.0,39.2,32.0,12.1,0000.0,0004.79,0023.93,0002.43
2021-12-03 23:34:00,,0828.3,4.98,0.00,30.2,29.3,00.0,39.2,32.0,12.1,0000.0,0004.80,0023.93,0002.40
2021-12-03 23:35:00,,0828.3,5.01,0.00,30.2,29.4,00.0,39.2,32.0,12.1,0000.0,0004.80,0023.44,0002.41
2021-12-03 23:36:00,,0828.3,4.99,0.00,30.2,29.4,00.0,39.2,32.0,12.0,0000.0,0004.78,0023.32,0002.39
2021-12-03 23:37:00,,0828.3,5.01,0.00,30.2,29.4,00.0,39.2,32.0,12.0,0000.0,0004.85,0021.60,0002.40
2021-12-03 23:38:00,,0828.3,4.99,0.00,30.2,29.4,00.0,39.2,32.0,12.0,0000.0,0004.93,0022.54,0002.41
2021-12-03 23:39:00,,0828.3,4.99,0.00,30.2,29.4,00.0,39.2,32.0,12.0,0000.0,0004.99,0024.16,0002.42
2021-12-03 23:40:00,,0828.3,5.01,0.00,30.3,29.4,00.0,39.2,32.0,12.0,0000.0,0004.93,0024.79,0002.42
2021-12-03 23:41:00,,0828.4,4.99,0.00,30.3,29.4,00.0,39.2,32.0,12.0,0000.0,0004.86,0024.60,0002.42
2021-12-03 23:42:00,,0828.4,4.99,0.00,30.3,29.4,00.0,39.2,32.0,12.0,0000.0,0004.93,0025.15,0002.42
2021-12-03 23:43:00,,0828.5,5.01,0.00,30.2,29.4,00.0,39.2,32.0,12.0,0000.0,0004.93,0024.59,0002.44
2021-12-03 23:44:00,,0828.5,4.98,0.00,30.3,29.4,00.0,39.2,32.0,12.0,0000.0,0004.93,0024.92,0002.44
2021-12-03 23:45:00,,0828.4,5.01,0.00,30.3,29.4,00.0,39.2,32.0,11.9,0000.0,0004.92,0024.09,0002.46
2021-12-03 23:46:00,,0828.5,5.00,0.00,30.3,29.4,00.0,39.2,32.0,11.9,0000.0,0004.94,0024.07,0002.46
2021-12-03 23:47:00,,0828.5,5.01,0.00,30.3,29.4,00.0,39.2,32.0,11.9,0000.0,0004.96,0024.55,0002.46
2021-12-03 23:48:00,,0828.5,4.99,0.00,30.3,29.4,00.0,39.2,32.0,11.9,0000.0,0004.90,0024.89,0002.46
2021-12-03 23:49:00,,0828.5,5.02,0.00,30.2,29.4,00.0,39.2,32.0,11.9,0000.0,0004.82,0024.19,0002.44
2021-12-03 23:50:00,,0828.5,4.99,0.00,30.3,29.4,00.0,39.2,32.0,11.9,0000.0,0004.77,0024.01,0002.45
2021-12-03 23:51:00,,0828.5,5.00,0.00,30.3,29.4,00.0,39.2,32.0,11.9,0000.0,0004.80,0023.65,0002.45
2021-12-03 23:52:00,,0828.5,5.00,0.00,30.2,29.3,00.0,39.2,32.0,11.9,0000.0,0004.83,0023.60,0002.45
2021-12-03 23:53:00,,0828.4,4.99,0.00,30.2,29.3,00.0,39.2,32.0,11.9,0000.0,0004.79,0022.72,0002.44
2021-12-03 23:54:00,,0828.5,5.01,0.00,30.2,29.3,00.0,39.2,31.9,11.9,0000.0,0004.84,0022.89,0002.42
2021-12-03 23:55:00,,0828.8,5.00,0.00,30.2,29.3,00.0,39.2,31.9,11.9,0000.0,0004.87,0021.83,0002.42
2021-12-03 23:56:00,,0828.6,5.00,0.00,30.2,29.3,00.0,39.2,31.9,11.9,0000.0,0004.94,0023.25,0002.41
2021-12-03 23:57:00,,0828.9,5.00,0.00,30.2,29.3,00.0,39.2,31.9,11.9,0000.0,0004.94,0025.63,0002.39
2021-12-03 23:58:00,,0829.0,5.00,0.00,30.2,29.3,00.0,39.2,31.9,11.9,0000.0,0005.00,0026.63,0002.38
2021-12-03 23:59:00,,0829.1,5.00,0.00,30.2,29.3,00.0,39.2,31.9,11.9,0000.0,0005.04,0026.32,0002.36
